Location: Grieser Field
(39.7333°N, 81.7975°W)
Time: 05:52:01
(UTC-05:00)

Daily predictions for brighter satellites

Satellite Brightness Start Highest point End
(mag) Time Altitude Azimuth Time Altitude Azimuth Time Altitude Azimuth
Cosmos 2297 Rocket 4.5 04:05:03 20° ENE 04:05:03 20° ENE 04:07:44 10° NE
Cosmos 2227 Rocket 4.3 04:18:47 21° NE 04:18:47 21° NE 04:20:48 10° NE
Cosmos 2333 Rocket 3.6 04:50:15 29° SSE 04:50:15 29° SSE 04:52:55 10° SSE
Cosmos 2219 Rocket 4.1 05:11:11 17° S 05:11:11 17° S 05:12:29 10° S
COSMO-SKYMED 1 3.6 05:15:55 10° SE 05:20:01 45° ENE 05:21:11 36° NNE
Cosmos 968 Rocket 4.5 05:21:39 10° S 05:26:39 46° ESE 05:31:41 10° NNE
NOAA 6 4.1 05:22:11 10° NNE 05:27:24 78° ESE 05:32:35 10° S
Cosmos 2237 Rocket 2.5 05:36:10 48° SW 05:36:10 48° SW 05:40:52 10° S
USA 229 DEB 3.7 05:33:34 33° NNW 05:37:07 87° ENE 05:44:22 10° SSE
USA 229 3.7 05:33:38 33° NNW 05:37:12 86° ENE 05:44:28 10° SSE
Cosmos 1500 Rocket 4.2 05:34:37 19° N 05:37:38 56° E 05:42:01 10° SSE
SL-16 R/B 2.3 05:35:44 28° NNW 05:38:47 72° ENE 05:44:25 10° SSE
Tsikada Rocket 3.9 05:34:19 10° NNW 05:40:40 69° W 05:46:55 10° S
Meteor 2-17 Rocket 4.5 05:37:26 10° SSW 05:43:16 51° WNW 05:49:10 10° N
Cosmos 2297 Rocket 2.3 05:46:57 49° WNW 05:47:07 49° WNW 05:52:38 10° NNE
SKYMED 3 4.4 05:45:41 10° S 05:50:02 83° W 05:51:35 40° NNW
Cosmos 220 Rocket 3.9 05:47:48 10° SSW 05:52:14 88° ESE 05:56:39 10° NNE
Cosmos 783 Rocket 4.4 05:51:32 39° NW 05:53:27 66° WSW 05:58:37 10° S
Cosmos 1340 Rocket 4.4 05:50:25 10° N 05:54:01 33° ENE 05:57:37 10° SE
Aureole 2 Rocket 2.9 05:57:16 57° WNW 05:57:40 61° WSW 06:01:47 10° S
Cosmos 540 Rocket 3.7 05:58:35 42° W 05:58:56 43° WSW 06:03:45 10° S
Cosmos 2227 Rocket 3.1 06:00:39 29° NW 06:00:39 29° NW 06:04:40 10° N
Meteor 1-16 Rocket 4.2 05:55:47 10° S 06:01:14 78° E 06:06:35 10° NNE
Cosmos 1271 Rocket 3.4 05:58:58 10° S 06:02:43 55° E 06:06:27 10° NNE
IDEFIX/ARIANE 42P 4.4 06:00:26 10° NNE 06:05:12 34° E 06:09:56 10° SSE
OAO 2 Rocket 3.8 06:04:02 31° WSW 06:06:02 49° S 06:10:47 10° ESE
ISS -2.7 06:06:00 42° N 06:06:34 48° NNE 06:09:43 10° ESE
Cosmos 1725 Rocket 4.4 06:01:10 10° SW 06:06:53 37° WNW 06:12:41 10° N
SL-14 R/B 3.4 06:03:01 10° N 06:07:05 76° E 06:11:09 10° SSE
Cosmos 304 Rocket 3.6 06:05:04 23° NNW 06:08:01 73° WSW 06:12:46 10° S
SKYMED 2 3.7 06:03:54 10° S 06:08:06 51° W 06:09:51 31° NW
Meteor 1-28 Rocket 3.0 06:04:24 10° S 06:08:10 81° WSW 06:10:38 21° NNW
Meteor 1-4 Rocket 2.6 06:08:17 10° SSW 06:11:54 52° WNW 06:15:36 10° N
Meteor 2-1 Rocket 4.5 06:13:51 10° S 06:19:23 72° E 06:25:05 10° NNE
CZ-4 R/B 2.6 06:16:38 10° NNE 06:20:32 45° E 06:24:29 10° S
USA 234 3.7 06:15:06 10° ESE 06:21:31 60° NE 06:27:24 13° NW
Cosmos 1538 Rocket 4.0 06:16:22 10° NNW 06:21:47 83° WSW 06:27:08 10° SSE
ERBS 3.3 06:23:54 19° NNW 06:25:58 42° NE 06:29:13 10° ESE
Cosmos 1626 3.7 06:24:05 10° N 06:27:36 37° ENE 06:31:05 10° SSE
Cosmos 2333 Rocket 4.1 06:32:19 11° WSW 06:32:19 11° WSW 06:32:48 10° WSW
PSLV R/B 3.9 06:29:54 16° SW 06:32:24 53° SSE 06:35:41 10° E
NOSS 3-1 (C) 4.1 06:24:56 10° NNW 06:32:36 86° ENE 06:41:01 10° SSE
Ariane Rocket 3.1 06:29:27 10° N 06:34:24 52° WNW 06:39:20 10° SSW
Cosmos 2221 2.4 06:31:22 10° S 06:35:42 78° W 06:40:02 10° N
Coronas F rocket 4.1 06:34:37 10° NNE 06:36:19 17° ENE 06:38:00 10° ESE
TELKOM 3 3.0 06:36:34 23° WSW 06:38:00 64° NW 06:40:11 10° NE
CSL-04 Debris 4.1 06:34:18 10° N 06:39:46 69° WNW 06:45:11 10° SSW
Cosmos 1603 3.7 06:36:56 10° NNW 06:42:36 87° ENE 06:48:15 10° SSE
Cosmos 389 Rocket 4.0 06:45:00 10° SSE 06:48:28 43° E 06:51:58 10° NNE
Cosmos 1908 4.3 06:45:41 10° SSE 06:49:21 48° E 06:53:04 10° NNE
Cosmos 2263 Rocket 3.8 06:45:06 10° S 06:50:19 39° ESE 06:55:35 10° NE
AQUARIUS 4.2 06:49:08 10° NNE 06:53:39 88° E 06:58:10 10° SSW
Cosmos 2058 3.4 06:50:01 10° NNW 06:53:51 39° W 06:57:42 10° SSW
COSMO-SKYMED 1 4.2 06:53:53 10° SW 06:56:24 15° W 06:58:24 12° WNW
Cosmos 2228 Rocket 4.2 06:52:31 10° SSE 06:56:48 48° E 07:01:04 10° NNE
PAYLOAD A 4.2 06:57:04 10° N 07:01:54 46° WNW 07:06:32 10° SW
Cosmos 292 Rocket 3.8 06:58:46 10° NNW 07:03:34 88° WSW 07:08:22 10° SSE
CZ-2C R/B 2.2 06:59:38 10° N 07:04:12 63° WNW 07:08:41 10° SSW
Cosmos 1805 Rocket 3.8 07:03:13 10° NNW 07:07:31 50° W 07:11:44 10° SSW
CSL-04 Rocket 4.3 07:05:43 10° N 07:10:19 31° WNW 07:14:54 10° SW
Helios 1B rocket 2.4 07:07:03 10° S 07:11:10 82° WSW 07:15:17 10° NNW
Cosmos 2151 4.4 07:08:20 10° NW 07:11:18 19° W 07:14:16 10° SW
Cosmos 2112 Rocket 4.2 07:07:32 10° NNW 07:12:53 84° ENE 07:18:14 10° SSE
MOS 1 4.3 07:07:12 10° NNE 07:12:56 80° WNW 07:18:38 10° SSW
Genesis I 3.4 07:09:23 10° NW 07:13:15 57° WSW 07:17:04 10° SSE
SMAP 3.1 07:09:15 10° N 07:13:50 58° WNW 07:18:23 10° SSW
Cosmos 2034 Rocket 4.1 07:08:44 10° SSW 07:14:44 53° W 07:20:50 10° N
Cosmos 1356 Rocket 3.9 07:15:20 10° NNW 07:19:11 40° W 07:23:04 10° SSW
Cosmos 1703 4.1 07:16:50 10° NNW 07:20:20 31° W 07:23:49 10° SSW
